TimeAKST,TemperatureF,Dew PointF,Humidity,Sea Level PressureIn,VisibilityMPH,Wind Direction,Wind SpeedMPH,Gust SpeedMPH,PrecipitationIn,Events,Conditions,WindDirDegrees,DateUTC
12:53 AM,-27.9,-35.0,69,30.50,10.0,WSW,11.5,-,N/A,,Clear,240,2013-01-29 09:53:00
1:18 AM,-27.4,-36.4,62,30.48,10.0,SW,11.5,-,N/A,,Clear,230,2013-01-29 10:18:00
1:53 AM,-27.9,-36.0,65,30.47,10.0,SW,10.4,-,N/A,,Clear,230,2013-01-29 10:53:00
2:53 AM,-29.0,-36.0,69,30.44,10.0,WSW,10.4,-,N/A,,Clear,240,2013-01-29 11:53:00
3:53 AM,-27.9,-35.0,69,30.42,9.0,SW,11.5,-,N/A,,Clear,230,2013-01-29 12:53:00
4:53 AM,-29.0,-36.0,69,30.39,9.0,WSW,11.5,-,N/A,,Clear,240,2013-01-29 13:53:00
5:53 AM,-29.9,-9999,N/A,30.38,10.0,SW,10.4,-,N/A,,Clear,230,2013-01-29 14:53:00
6:53 AM,-31.0,-9999,N/A,30.35,10.0,WSW,8.1,-,N/A,,Clear,240,2013-01-29 15:53:00
7:53 AM,-33.0,-9999,N/A,30.33,10.0,WSW,4.6,-,N/A,,Clear,240,2013-01-29 16:53:00
8:53 AM,-32.1,-9999,N/A,30.31,10.0,SSW,10.4,-,N/A,,Clear,210,2013-01-29 17:53:00
9:53 AM,-32.1,-9999,N/A,30.30,10.0,WSW,9.2,-,N/A,,Clear,240,2013-01-29 18:53:00
10:53 AM,-32.1,-9999,N/A,30.29,10.0,SW,10.4,-,N/A,,Clear,220,2013-01-29 19:53:00
11:53 AM,-33.0,-9999,N/A,30.28,10.0,SW,8.1,-,N/A,,Clear,230,2013-01-29 20:53:00
12:53 PM,-34.1,-9999,N/A,30.26,10.0,SW,5.8,-,N/A,,Clear,230,2013-01-29 21:53:00
1:53 PM,-34.1,-9999,N/A,30.25,10.0,SW,9.2,-,N/A,,Clear,220,2013-01-29 22:53:00
2:53 PM,-33.0,-9999,N/A,30.25,10.0,WSW,8.1,-,N/A,,Clear,240,2013-01-29 23:53:00
3:53 PM,-35.0,-9999,N/A,30.24,10.0,SW,6.9,-,N/A,,Clear,220,2013-01-30 00:53:00
4:53 PM,-33.0,-9999,N/A,30.23,10.0,SW,9.2,-,N/A,,Clear,230,2013-01-30 01:53:00
5:53 PM,-34.1,-9999,N/A,30.22,10.0,WSW,6.9,-,N/A,,Clear,240,2013-01-30 02:53:00
6:53 PM,-34.1,-9999,N/A,30.22,10.0,WSW,6.9,-,N/A,,Clear,250,2013-01-30 03:53:00
7:53 PM,-35.0,-9999,N/A,30.21,10.0,SW,8.1,-,N/A,,Clear,220,2013-01-30 04:53:00
8:53 PM,-36.0,-9999,N/A,30.21,10.0,WSW,6.9,-,N/A,,Clear,240,2013-01-30 05:53:00
9:53 PM,-36.0,-9999,N/A,30.20,10.0,WSW,6.9,-,N/A,,Clear,250,2013-01-30 06:53:00
10:53 PM,-36.9,-9999,N/A,30.20,10.0,WSW,5.8,-,N/A,,Clear,250,2013-01-30 07:53:00
11:53 PM,-36.9,-9999,N/A,30.20,10.0,SW,8.1,-,N/A,,Clear,230,2013-01-30 08:53:00